User: anonymous   Login
Location: Unspecified
(0.0000°N, 0.0000°E)
Time: 20:40:42
(UTC+00:00)
Language:

PAYLOAD F - Orbit

View from above orbital plane
View from above orbital plane
View from above satellite
View from above satellite

Ground track
Ground track

The orbit data is extracted from the following two-line orbital elements,

1 27060U 01058F   17172.70533911 +.00000005 +00000-0 -31879-4 0  9994
2 27060 082.5394 143.9318 0007828 181.8630 178.2437 12.62993117713788
Epoch (UTC): 21 June 2017 16:55:41
Eccentricity: 0.0007828
inclination: 82.5394°
perigee height: 1404 km
apogee height: 1417 km
right ascension of ascending node: 143.9318°
argument of perigee: 181.8630°
revolutions per day: 12.62993117
mean anomaly at epoch: 178.2437°
orbit number at epoch: 71378

The dashed part of the orbit path shows where the satellite is in the earth's shadow,  

DLR